Decherd, TN

6:35 AM CDT on July 25, 2016 (GMT -0500)
Winchester Municipal

Weather History for KBGF - May, 2013

Change the Weather History Date:

Friday, May 3, 2013

  Actual Average (KTHA) Record (KTHA)
Temperature  
Mean Temperature 64 °F -  
Max Temperature 69 °F 72 °F 77 °F (2015)
Min Temperature 59 °F 49 °F 37 °F (2014)
Degree Days  
Heating Degree Days 1    
Growing Degree Days 14 (Base 50)    
Moisture  
Dew Point 54 °F    
Average Humidity 72    
Maximum Humidity 88    
Minimum Humidity 56    
Precipitation  
Precipitation 0.00 in - - ()
Sea Level Pressure  
Sea Level Pressure 29.99 in    
Wind  
Wind Speed 14 mph (SE)    
Max Wind Speed 26 mph    
Max Gust Speed 38 mph    
Visibility 10 miles    
Events      
Averages and records for this station are not official NWS values.
T = Trace of Precipitation, MM = Missing Value Source: NWS Daily Summary

Daily Weather History Graph

Daily Weather History Graph

Search for Another Location

Airport or City:

Trip Planner

Search our weather history database for the weather conditions in past years. The results will help you decide how hot, cold, wet, or windy it might be!

Date:

Astronomy

May. 03, 2013 Rise Set
Actual Time 6:50 AM EDT 8:31 PM EDT
Civil Twilight 6:23 AM EDT 8:59 PM EDT
Nautical Twilight 5:50 AM EDT 9:32 PM EDT
Astronomical Twilight 5:15 AM EDT 10:07 PM EDT
Moon 3:00 AM EDT (5/3) 2:39 PM EDT (5/3)
Length of Visible Light 14h 35m
Length of Day
13h 41m
Last Quarter, 37% of the Moon is Illuminated
May 3
Last Quarter
May 9
New
May 18
First Quarter
May 25
Full
May 31
Last Quarter

Hourly Weather History & Observations

Time (EDT) Temp. Dew Point Humidity Pressure Visibility Wind Dir Wind Speed Gust Speed Precip Events Conditions
12:15 AM 64.4 °F 53.6 °F 68% 30.10 in 10.0 mi SSE 11.5 mph - N/A   Overcast
12:35 AM 64.4 °F 55.4 °F 73% 30.09 in 10.0 mi SSE 12.7 mph - N/A   Overcast
12:55 AM 64.4 °F 53.6 °F 68% 30.08 in 10.0 mi SE 15.0 mph - N/A   Overcast
1:35 AM 62.6 °F 53.6 °F 72% 30.08 in 10.0 mi SSE 12.7 mph - N/A   Mostly Cloudy
1:55 AM 62.6 °F 53.6 °F 72% 30.08 in 10.0 mi SE 12.7 mph - N/A   Partly Cloudy
2:15 AM 62.6 °F 53.6 °F 72% 30.07 in 10.0 mi SE 13.8 mph - N/A   Partly Cloudy
2:35 AM 62.6 °F 53.6 °F 72% 30.07 in 10.0 mi SSE 13.8 mph - N/A   Mostly Cloudy
2:55 AM 62.6 °F 53.6 °F 72% 30.06 in 10.0 mi SSE 11.5 mph - N/A   Mostly Cloudy
3:15 AM 62.6 °F 53.6 °F 72% 30.05 in 10.0 mi SE 9.2 mph - N/A   Mostly Cloudy
3:35 AM 62.6 °F 53.6 °F 72% 30.05 in 10.0 mi SE 9.2 mph - N/A   Overcast
3:55 AM 62.6 °F 53.6 °F 72% 30.05 in 10.0 mi SE 8.1 mph - N/A   Overcast
4:15 AM 60.8 °F 53.6 °F 77% 30.05 in 10.0 mi SSE 9.2 mph - N/A   Overcast
4:35 AM 60.8 °F 53.6 °F 77% 30.05 in 10.0 mi SSE 8.1 mph - N/A   Overcast
4:55 AM 60.8 °F 53.6 °F 77% 30.04 in 10.0 mi SE 9.2 mph - N/A   Overcast
5:15 AM 60.8 °F 53.6 °F 77% 30.04 in 10.0 mi SSE 9.2 mph - N/A   Mostly Cloudy
5:35 AM 60.8 °F 53.6 °F 77% 30.03 in 10.0 mi SSE 5.8 mph - N/A   Partly Cloudy
5:55 AM 60.8 °F 53.6 °F 77% 30.03 in 10.0 mi SSE 11.5 mph - N/A   Clear
6:15 AM 60.8 °F 53.6 °F 77% 30.03 in 10.0 mi SSE 11.5 mph - N/A   Partly Cloudy
6:35 AM 60.8 °F 53.6 °F 77% 30.04 in 10.0 mi SSE 8.1 mph - N/A   Overcast
6:55 AM 60.8 °F 53.6 °F 77% 30.04 in 10.0 mi SE 8.1 mph - N/A   Overcast
7:15 AM 60.8 °F 53.6 °F 77% 30.04 in 10.0 mi SE 10.4 mph - N/A   Scattered Clouds
7:35 AM 60.8 °F 53.6 °F 77% 30.04 in 10.0 mi SE 10.4 mph - N/A   Partly Cloudy
7:55 AM 62.6 °F 53.6 °F 72% 30.03 in 10.0 mi SE 15.0 mph - N/A   Mostly Cloudy
8:15 AM 62.6 °F 53.6 °F 72% 30.03 in 10.0 mi SSE 15.0 mph - N/A   Scattered Clouds
8:35 AM 62.6 °F 53.6 °F 72% 30.03 in 10.0 mi SE 15.0 mph - N/A   Clear
8:55 AM 62.6 °F 53.6 °F 72% 30.03 in 10.0 mi SE 15.0 mph - N/A   Clear
9:15 AM 62.6 °F 53.6 °F 72% 30.03 in 10.0 mi SE 15.0 mph - N/A   Clear
9:35 AM 62.6 °F 53.6 °F 72% 30.02 in 10.0 mi SE 18.4 mph - N/A   Clear
9:55 AM 62.6 °F 53.6 °F 72% 30.02 in 10.0 mi SE 8.1 mph - N/A   Clear
10:15 AM 62.6 °F 53.6 °F 72% 30.02 in 10.0 mi SE 11.5 mph - N/A   Clear
10:35 AM 64.4 °F 53.6 °F 68% 30.02 in 10.0 mi SE 16.1 mph - N/A   Mostly Cloudy
10:55 AM 64.4 °F 55.4 °F 73% 30.02 in 10.0 mi SE 11.5 mph - N/A   Mostly Cloudy
11:15 AM 64.4 °F 53.6 °F 68% 30.03 in 10.0 mi SSE 15.0 mph - N/A   Overcast
11:35 AM 66.2 °F 53.6 °F 64% 30.02 in 10.0 mi SE 20.7 mph - N/A   Mostly Cloudy
11:55 AM 66.2 °F 55.4 °F 68% 30.01 in 10.0 mi SE 15.0 mph 26.5 mph N/A   Partly Cloudy
12:15 PM 66.2 °F 55.4 °F 68% 30.01 in 10.0 mi SE 17.3 mph - N/A   Scattered Clouds
12:35 PM 69.8 °F 55.4 °F 60% 30.00 in 10.0 mi SE 17.3 mph 25.3 mph N/A   Mostly Cloudy
12:55 PM 68.0 °F 55.4 °F 64% 30.00 in 10.0 mi SE 11.5 mph - N/A   Mostly Cloudy
1:15 PM 68.0 °F 55.4 °F 64% 29.99 in 10.0 mi SE 15.0 mph - N/A   Mostly Cloudy
1:35 PM 68.0 °F 55.4 °F 64% 29.99 in 10.0 mi SSE 13.8 mph - N/A   Mostly Cloudy
1:55 PM 68.0 °F 55.4 °F 64% 29.98 in 10.0 mi SE 23.0 mph - N/A   Partly Cloudy
2:15 PM 66.2 °F 53.6 °F 64% 29.98 in 10.0 mi SE 17.3 mph - N/A   Clear
2:35 PM 66.2 °F 53.6 °F 64% 29.97 in 10.0 mi SE 19.6 mph - N/A   Clear
2:55 PM 68.0 °F 53.6 °F 60% 29.97 in 10.0 mi SE 13.8 mph - N/A   Scattered Clouds
3:15 PM 69.8 °F 53.6 °F 56% 29.97 in 10.0 mi SE 17.3 mph - N/A   Mostly Cloudy
3:35 PM 68.0 °F 55.4 °F 64% 29.96 in 10.0 mi ESE 18.4 mph - N/A   Partly Cloudy
3:55 PM 66.2 °F 55.4 °F 68% 29.96 in 10.0 mi SE 21.9 mph - N/A   Partly Cloudy
4:15 PM 64.4 °F 53.6 °F 68% 29.96 in 10.0 mi SE 23.0 mph - N/A   Scattered Clouds
4:35 PM 64.4 °F 53.6 °F 68% 29.96 in 10.0 mi SE 19.6 mph - N/A   Mostly Cloudy
4:55 PM 64.4 °F 53.6 °F 68% 29.95 in 10.0 mi SE 20.7 mph - N/A   Scattered Clouds
5:15 PM 64.4 °F 53.6 °F 68% 29.94 in 10.0 mi SE 19.6 mph - N/A   Scattered Clouds
5:35 PM 64.4 °F 53.6 °F 68% 29.95 in 10.0 mi SE 15.0 mph - N/A   Mostly Cloudy
5:55 PM 62.6 °F 53.6 °F 72% 29.94 in 10.0 mi SE 17.3 mph - N/A   Overcast
6:15 PM 62.6 °F 53.6 °F 72% 29.94 in 10.0 mi SE 18.4 mph - N/A   Mostly Cloudy
6:35 PM 62.6 °F 53.6 °F 72% 29.93 in 10.0 mi SSE 15.0 mph - N/A   Mostly Cloudy
6:55 PM 62.6 °F 53.6 °F 72% 29.93 in 10.0 mi SE 15.0 mph - N/A   Mostly Cloudy
7:15 PM 62.6 °F 53.6 °F 72% 29.92 in 10.0 mi SE 19.6 mph - N/A   Mostly Cloudy
7:35 PM 62.6 °F 53.6 °F 72% 29.92 in 10.0 mi SE 16.1 mph - N/A   Mostly Cloudy
7:55 PM 62.6 °F 53.6 °F 72% 29.92 in 10.0 mi SE 19.6 mph - N/A   Scattered Clouds
8:15 PM 62.6 °F 53.6 °F 72% 29.92 in 10.0 mi SE 13.8 mph - N/A   Mostly Cloudy
8:35 PM 62.6 °F 53.6 °F 72% 29.92 in 10.0 mi SE 16.1 mph - N/A   Mostly Cloudy
8:55 PM 62.6 °F 53.6 °F 72% 29.91 in 10.0 mi SE 15.0 mph - N/A   Mostly Cloudy
9:15 PM 62.6 °F 53.6 °F 72% 29.91 in 10.0 mi SE 17.3 mph - N/A   Mostly Cloudy
9:35 PM 62.6 °F 53.6 °F 72% 29.91 in 10.0 mi SE 18.4 mph - N/A   Overcast
9:55 PM 60.8 °F 53.6 °F 77% 29.92 in 10.0 mi SE 12.7 mph 21.9 mph N/A   Overcast
10:15 PM 59.0 °F 55.4 °F 88% 29.90 in 10.0 mi ESE 17.3 mph - N/A   Overcast
10:35 PM 59.0 °F 55.4 °F 88% 29.89 in 10.0 mi SE 19.6 mph - N/A   Overcast
10:55 PM 59.0 °F 53.6 °F 82% 29.88 in 10.0 mi SE 20.7 mph - N/A   Overcast
11:15 PM 60.8 °F 53.6 °F 77% 29.87 in 10.0 mi ESE 25.3 mph - N/A   Overcast
11:35 PM 59.0 °F 53.6 °F 82% 29.85 in 10.0 mi SE 26.5 mph 38.0 mph N/A   Overcast
11:55 PM 59.0 °F 53.6 °F 82% 29.86 in 10.0 mi SE 18.4 mph - N/A   Mostly Cloudy